FW1833 Weather Reports


time (UTC)temp
C
wind
direction
speed
KPH
gust
KPH
rain 1hr
cm
rain 24hr
cm
rain mn
cm
humidity
%
barometer
mb
20260507220018 10 177 0.0 9.7 0.00 2.64 2.64 99 1002.7
20260507214518 10 190 6.4 11.3 0.00 2.64 2.64 99 1002.9
20260507213017 10 113 0.0 3.2 0.03 2.64 2.64 99 1003.2
20260507211516 10 114 0.0 3.2 0.05 2.64 2.64 98 1003.2
20260507210017 9 113 0.0 3.2 0.10 2.64 2.64 98 1002.7
20260507204514 9 114 1.6 8.0 0.15 2.64 2.64 98 1002.4
20260507203027 9 152 4.8 11.3 0.23 2.62 2.62 98 1002.3
20260507201506 8 115 6.4 14.5 0.38 2.59 2.59 97 1003.0
20260507200003 9 83 3.2 11.3 0.51 2.54 2.54 97 1003.4
20260507194501 10 152 8.0 11.3 0.76 2.49 2.49 97 1003.7
20260507193100 11 162 3.2 6.4 0.86 2.39 2.39 97 1003.9
20260507191557 11 183 0.0 3.2 0.94 2.21 2.21 97 1004.4
20260507190055 11 183 3.2 16.1 1.09 2.03 2.03 98 1004.9
20260507184553 11 197 4.8 11.3 1.30 1.75 1.75 97 1005.1
20260507183055 11 185 4.8 11.3 1.27 1.55 1.55 97 1005.2
20260507181558 10 177 4.8 12.9 1.09 1.27 1.27 97 1005.6
20260507180054 10 183 0.0 9.7 0.81 0.94 0.94 97 1005.9
20260507174556 10 211 6.4 24.1 0.41 0.43 0.43 97 1005.8
20260507173054 10 184 4.8 24.1 0.25 0.28 0.28 97 1005.0
20260507171558 10 156 9.7 20.9 0.15 0.18 0.18 97 1005.1
20260507170049 10 135 6.4 16.1 0.10 0.13 0.13 97 1005.5
20260507164542 10 142 3.2 9.7 0.03 0.05 0.05 97 1006.1
20260507163042 10 113 4.8 8.0 0.03 0.03 0.03 96 1006.6
20260507161544 10 119 3.2 9.7 0.03 0.03 0.03 95 1007.1
20260507160039 10 120 3.2 8.0 0.03 0.03 0.03 95 1007.5
20260507154533 10 171 4.8 11.3 0.00 0.00 0.00 94 1008.0
20260507153035 11 167 3.2 16.1 0.00 0.00 0.00 94 1008.3
20260507151530 11 169 3.2 16.1 0.00 0.00 0.00 93 1008.7
20260507150028 11 198 11.3 22.5 0.00 0.00 0.00 92 1009.0
20260507144529 12 150 3.2 8.0 0.00 0.00 0.00 93 1009.1
20260507143025 12 148 4.8 12.9 0.00 0.00 0.00 92 1009.4
20260507141522 12 177 6.4 22.5 0.00 0.00 0.00 92 1009.8
20260507140021 12 133 4.8 14.5 0.00 0.00 0.00 93 1010.0
20260507134519 12 180 9.7 25.7 0.00 0.00 0.00 93 1010.2
20260507133019 12 146 8.0 25.7 0.00 0.00 0.00 94 1010.4
20260507131525 12 168 8.0 22.5 0.00 0.00 0.00 94 1010.4
20260507130017 12 169 6.4 19.3 0.00 0.00 0.00 95 1010.7
20260507124515 12 177 4.8 17.7 0.00 0.00 0.00 96 1010.7
20260507123014 12 163 6.4 33.8 0.00 0.00 0.00 97 1010.2
20260507121513 11 135 6.4 19.3 0.00 0.00 0.00 97 1010.5
20260507120010 11 166 6.4 16.1 0.00 0.00 0.00 97 1010.9
20260507114507 11 155 8.0 19.3 0.00 0.00 0.00 98 1011.4
20260507113004 11 151 8.0 14.5 0.00 0.00 0.00 98 1011.4
20260507111507 11 122 4.8 14.5 0.00 0.00 0.00 99 1011.5
20260507110100 9 119 4.8 14.5 0.00 0.00 0.00 98 1011.8
20260507104556 9 167 3.2 9.7 0.00 0.00 0.00 98 1011.9
20260507103050 10 115 8.0 16.1 0.00 0.00 0.00 98 1011.6
20260507101558 10 170 4.8 11.3 0.00 0.00 0.00 99 1012.2
20260507100056 11 130 4.8 16.1 0.00 0.00 0.00 99 1012.1
20260507094544 10 182 3.2 9.7 0.00 0.00 0.00 99 1012.6
20260507093043 9 67 0.0 4.8 0.00 0.00 0.00 99 1012.5
20260507091542 8 68 0.0 4.8 0.00 0.00 0.00 99 1012.4
20260507090044 8 102 0.0 9.7 0.00 0.00 0.00 98 1012.7
20260507084544 8 106 3.2 8.0 0.00 0.00 0.00 98 1012.6
20260507083051 8 125 1.6 4.8 0.00 0.00 0.00 98 1012.8
20260507081537 8 118 1.6 6.4 0.00 0.00 0.00 98 1012.8
20260507080032 8 72 1.6 9.7 0.00 0.00 0.00 98 1013.0
20260507074531 8 145 3.2 9.7 0.00 0.00 0.00 98 1013.3
20260507073031 8 158 3.2 12.9 0.00 0.00 0.00 98 1013.5
20260507071530 8 163 4.8 8.0 0.00 0.00 0.00 98 1014.0
20260507070035 8 147 4.8 8.0 0.00 0.00 0.00 98 1014.4
20260507064533 8 150 4.8 14.5 0.00 0.00 0.00 97 1014.3
20260507063028 8 142 6.4 14.5 0.00 0.00 0.00 97 1014.4
20260507061521 8 150 6.4 17.7 0.00 0.00 0.00 97 1014.4
20260507060021 8 150 4.8 12.9 0.00 0.00 0.00 97 1014.7
20260507054513 8 134 4.8 11.3 0.00 0.00 0.00 97 1015.0
20260507053010 8 83 0.0 3.2 0.00 0.00 0.00 96 1015.3
20260507051509 8 83 0.0 4.8 0.00 0.00 0.00 96 1015.6
20260507050007 8 48 1.6 6.4 0.00 0.00 0.00 96 1016.1
20260507044502 8 115 0.0 4.8 0.00 0.00 0.00 95 1016.6
20260507043102 8 120 4.8 12.9 0.00 0.00 0.00 95 1016.7
20260507041556 10 57 0.0 3.2 0.00 0.00 0.00 96 1016.9
20260507040054 10 58 0.0 3.2 0.00 0.00 0.00 96 1017.3
20260507034552 10 57 1.6 4.8 0.00 0.00 0.00 96 1017.4
20260507033050 9 58 0.0 6.4 0.00 0.00 0.00 96 1017.7
20260507031549 9 95 0.0 16.1 0.00 0.00 0.00 95 1018.0
20260507030045 10 148 3.2 8.0 0.00 0.00 0.00 95 1018.1
20260507024547 10 155 1.6 9.7 0.00 0.00 0.00 95 1018.2
20260507023042 10 158 0.0 3.2 0.00 0.00 0.00 95 1018.4
20260507021540 10 158 0.0 4.8 0.00 0.00 0.00 94 1018.5
20260507020050 10 160 1.6 8.0 0.00 0.00 0.00 94 1018.6
20260507014543 10 171 1.6 11.3 0.00 0.00 0.00 94 1018.5
20260507013034 10 186 3.2 11.3 0.00 0.00 0.00 93 1018.7
20260507011533 11 178 4.8 12.9 0.00 0.00 0.00 92 1018.8
20260507010031 11 191 3.2 11.3 0.00 0.00 0.00 92 1019.0
20260507004535 11 166 1.6 9.7 0.00 0.00 0.00 90 1019.0
20260507003031 11 167 3.2 14.5 0.00 0.00 0.00 89 1018.9
20260507001526 11 172 8.0 17.7 0.00 0.00 0.00 88 1018.9
20260507000026 12 169 6.4 14.5 0.00 0.00 0.00 87 1019.0
20260506234532 12 197 4.8 14.5 0.00 0.00 0.00 86 1018.9
20260506233018 12 221 6.4 19.3 0.00 0.00 0.00 85 1018.7
20260506231530 12 174 6.4 24.1 0.00 0.00 0.00 85 1018.5
20260506230015 12 168 11.3 24.1 0.00 0.00 0.00 84 1018.4
20260506224514 12 164 9.7 20.9 0.00 0.00 0.00 83 1018.3
20260506223013 12 202 11.3 25.7 0.00 0.00 0.00 82 1018.3
20260506221513 13 145 9.7 32.2 0.00 0.00 0.00 81 1018.4